Time[GMT],current_speed[cm/s](2m),current_direction[angular_degrees](2m),temperature[C](2m),current_u[cm/s](2m),current_v[cm/s](2m)
2005-05-21 00:00,,,,,
2005-05-21 01:00,,,,,
2005-05-21 02:00,10.85,209.8,7.26,-5.39,-9.42
2005-05-21 03:00,18.48,210.1,6.90,-9.28,-15.98
2005-05-21 04:00,27.28,224.2,6.87,-19.02,-19.55
2005-05-21 05:00,15.25,195.4,6.68,-4.04,-14.71
2005-05-21 06:00,25.52,200.3,6.10,-8.85,-23.93
2005-05-21 07:00,20.53,236.2,6.71,-17.05,-11.43
2005-05-21 08:00,11.15,267.4,6.55,-11.13,-0.50
2005-05-21 09:00,6.75,10.4,6.52,1.22,6.63
2005-05-21 10:00,,,,,
2005-05-21 11:00,,,,,
2005-05-21 12:00,22.88,356.0,6.58,-1.59,22.82
2005-05-21 13:00,13.49,347.6,6.10,-2.90,13.18
2005-05-21 14:00,,,,,
2005-05-21 15:00,1.47,213.7,5.71,-0.81,-1.22
2005-05-21 16:00,,,,,
2005-05-21 17:00,,,,,
2005-05-21 18:00,,,,,
2005-05-21 19:00,17.30,217.9,6.74,-10.62,-13.66
2005-05-21 22:00,8.80,323.7,6.65,-5.21,7.09
2005-05-21 23:00,,,,,
2005-05-22 00:00,,,,,
2005-05-22 01:00,,,,,
2005-05-22 02:00,,,,,
2005-05-22 03:00,,,,,
2005-05-22 04:00,,,,,
2005-05-22 05:00,,,,,
2005-05-22 06:00,,,,,
2005-05-22 07:00,,,,,
2005-05-22 08:00,45.75,239.0,5.32,-39.21,-23.59
2005-05-22 09:00,,,,,
2005-05-22 10:00,,,,,
2005-05-22 11:00,25.52,250.9,5.06,-24.12,-8.34
2005-05-22 12:00,29.33,272.0,5.00,-29.31,1.03
2005-05-22 13:00,,,,,
2005-05-22 14:00,,,,,
2005-05-22 16:00,60.42,224.2,5.00,-42.12,-43.32
2005-05-22 18:00,,,,,
2005-05-22 19:00,,,,,
2005-05-22 20:00,,,,,
2005-05-22 21:00,,,,,
2005-05-22 22:00,,,,,
2005-05-22 23:00,,,,,
2005-05-23 00:00,,,,,
2005-05-23 03:00,50.74,218.6,4.93,-31.64,-39.67
2005-05-23 04:00,,,,,
2005-05-23 05:00,,,,,
2005-05-23 06:00,,,,,
2005-05-23 07:00,78.02,222.4,5.00,-52.65,-57.57
2005-05-23 08:00,,,,,
2005-05-23 09:00,,,,,
2005-05-23 10:00,,,,,
2005-05-23 11:00,,,,,
2005-05-23 13:00,41.06,253.7,4.93,-39.42,-11.50
2005-05-23 14:00,43.12,248.8,4.93,-40.20,-15.58
2005-05-23 15:00,60.42,236.5,4.93,-50.39,-33.34
2005-05-23 16:00,,,,,
2005-05-23 17:00,,,,,
2005-05-23 18:00,67.75,216.1,4.97,-39.93,-54.73
2005-05-23 19:00,,,,,
2005-05-23 20:00,105.88,237.6,4.93,-89.36,-56.79
2005-05-23 21:00,102.95,237.6,4.97,-86.89,-55.22
2005-05-23 22:00,80.95,235.8,4.97,-66.96,-45.50
2005-05-23 23:00,65.41,240.4,4.97,-56.86,-32.33
2005-05-24 00:00,,,,,
2005-05-24 02:00,56.90,247.4,4.97,-52.53,-21.86
2005-05-24 03:00,58.95,229.1,4.97,-44.58,-38.58
2005-05-24 04:00,,,,,
2005-05-24 05:00,100.31,214.0,5.06,-56.10,-83.16
2005-05-24 06:00,79.19,216.8,5.00,-47.46,-63.40
2005-05-24 07:00,,,,,
2005-05-24 08:00,85.35,217.9,5.03,-52.40,-67.37
2005-05-24 09:00,73.91,218.2,5.06,-45.73,-58.07
2005-05-24 10:00,47.51,220.0,5.06,-30.53,-36.41
2005-05-24 11:00,41.06,228.8,5.06,-30.88,-27.06
2005-05-24 12:00,27.86,242.8,5.03,-24.79,-12.72
2005-05-24 13:00,29.04,238.3,5.00,-24.70,-15.27
2005-05-24 14:00,,,,,
2005-05-24 15:00,36.37,240.7,4.93,-31.72,-17.78
2005-05-24 16:00,63.06,231.9,4.93,-49.65,-38.88
2005-05-24 17:00,66.58,222.8,4.93,-45.23,-48.86
2005-05-24 18:00,108.23,234.4,4.97,-88.00,-63.01
2005-05-24 19:00,91.51,229.5,4.97,-69.56,-59.46
2005-05-24 20:00,84.18,226.3,4.97,-60.87,-58.15
2005-05-24 21:00,78.31,239.7,5.00,-67.59,-39.54
2005-05-24 22:00,60.71,241.8,5.00,-53.50,-28.71
2005-05-24 23:00,54.85,243.9,5.00,-49.25,-24.14
2005-05-25 00:00,,,,,
2005-05-25 01:00,,,,,
2005-05-25 02:00,,,,,
2005-05-25 03:00,51.03,228.1,5.00,-37.97,-34.10
2005-05-25 04:00,,,,,
2005-05-25 05:00,,,,,
2005-05-25 06:00,,,,,
2005-05-25 07:00,,,,,
2005-05-25 08:00,77.72,223.1,4.90,-53.15,-56.71
2005-05-25 09:00,119.96,228.8,5.03,-90.22,-79.06
2005-05-25 10:00,107.05,234.0,5.03,-86.66,-62.86
2005-05-25 11:00,90.92,239.7,5.03,-78.48,-45.91
2005-05-25 12:00,87.40,238.6,4.97,-74.62,-45.52
2005-05-25 13:00,36.37,248.1,4.90,-33.75,-13.56
2005-05-25 14:00,45.17,248.1,4.87,-41.91,-16.84
2005-05-25 15:00,47.51,239.3,4.87,-40.86,-24.24
2005-05-25 16:00,74.20,237.6,4.87,-62.63,-39.80
2005-05-25 17:00,66.29,243.2,4.84,-59.16,-29.90
2005-05-25 18:00,,,,,
2005-05-25 19:00,133.74,231.2,5.06,-104.28,-83.75
2005-05-25 20:00,,,,,
2005-05-25 21:00,,,,,
2005-05-25 22:00,98.84,227.4,5.10,-72.72,-66.95
2005-05-25 23:00,89.75,231.6,5.10,-70.32,-55.77
2005-05-26 00:00,,,,,
2005-05-26 02:00,54.85,235.1,5.06,-44.98,-31.38
2005-05-26 03:00,54.26,235.5,5.06,-44.69,-30.77
2005-05-26 04:00,76.84,230.5,5.06,-59.32,-48.85
2005-05-26 05:00,,,,,
2005-05-26 06:00,68.63,233.0,4.97,-54.81,-41.31
2005-05-26 07:00,87.99,232.6,5.00,-69.94,-53.40
2005-05-26 08:00,84.47,228.1,5.00,-62.84,-56.45
2005-05-26 09:00,61.89,221.4,5.00,-40.92,-46.43
2005-05-26 10:00,,,,,
2005-05-26 11:00,73.32,237.2,5.06,-61.64,-39.71
2005-05-26 12:00,55.14,233.0,5.06,-44.03,-33.19
2005-05-26 13:00,41.36,228.4,5.06,-30.93,-27.45
2005-05-26 14:00,24.34,224.9,5.03,-17.18,-17.24
2005-05-26 15:00,25.22,264.3,5.06,-25.10,-2.51
2005-05-26 16:00,23.17,260.1,5.06,-22.82,-4.00
2005-05-26 17:00,51.91,240.7,5.03,-45.28,-25.39
2005-05-26 18:00,78.31,231.9,5.00,-61.66,-48.28
2005-05-26 19:00,,,,,
2005-05-26 20:00,,,,,
2005-05-26 21:00,,,,,
2005-05-26 22:00,98.26,218.9,5.16,-61.74,-76.44
2005-05-26 23:00,,,,,
2005-05-27 00:00,,,,,
2005-05-27 01:00,,,,,
2005-05-27 02:00,55.43,245.3,5.00,-50.36,-23.17
2005-05-27 03:00,58.95,234.4,4.97,-47.93,-34.32
2005-05-27 04:00,39.89,251.3,4.93,-37.78,-12.81
2005-05-27 05:00,34.90,248.1,4.90,-32.39,-13.01
2005-05-27 06:00,92.68,240.7,5.06,-80.85,-45.32
2005-05-27 07:00,100.02,229.8,5.10,-76.42,-64.52
2005-05-27 08:00,85.64,227.4,5.10,-63.01,-58.01
2005-05-27 09:00,90.34,224.2,5.10,-62.98,-64.76
2005-05-27 10:00,110.28,228.1,5.16,-82.04,-73.69
2005-05-27 11:00,91.51,220.3,5.16,-59.23,-69.76
2005-05-27 12:00,66.58,220.7,5.16,-43.40,-50.49
2005-05-27 13:00,49.27,229.1,5.13,-37.26,-32.25
2005-05-27 14:00,32.56,233.3,5.10,-26.12,-19.44
2005-05-27 15:00,17.01,270.3,5.13,-17.01,0.08
2005-05-27 16:00,12.03,282.2,5.45,-11.75,2.54
2005-05-27 17:00,6.75,241.4,5.36,-5.92,-3.23
2005-05-27 18:00,21.70,236.5,5.52,-18.10,-11.98
2005-05-27 19:00,26.10,210.1,5.16,-13.11,-22.58
2005-05-27 20:00,42.24,220.0,5.45,-27.14,-32.36
2005-05-27 21:00,47.22,216.8,5.45,-28.30,-37.80
2005-05-27 22:00,37.54,204.9,5.58,-15.78,-34.06
2005-05-27 23:00,36.08,220.0,5.26,-23.18,-27.64
2005-05-28 00:00,,,,,
2005-05-28 01:00,,,,,
2005-05-28 02:00,70.10,246.4,5.48,-64.21,-28.12
2005-05-28 03:00,56.90,236.9,5.61,-47.64,-31.11
2005-05-28 04:00,48.98,254.4,5.32,-47.19,-13.14
2005-05-28 05:00,54.26,252.3,5.45,-51.70,-16.47
2005-05-28 06:00,50.15,246.7,5.36,-46.07,-19.84
2005-05-28 07:00,69.51,237.2,5.39,-58.44,-37.65
2005-05-28 08:00,84.18,227.7,5.61,-62.28,-56.63
2005-05-28 09:00,87.70,225.6,5.45,-62.66,-61.35
2005-05-28 10:00,92.10,219.3,5.52,-58.31,-71.29
2005-05-28 11:00,86.52,215.4,5.58,-50.13,-70.52
2005-05-28 12:00,78.31,212.9,5.61,-42.59,-65.71
2005-05-28 13:00,61.89,222.8,5.45,-42.04,-45.41
2005-05-28 14:00,45.75,224.2,5.32,-31.90,-32.80
2005-05-28 15:00,28.16,228.1,5.29,-20.95,-18.82
2005-05-28 16:00,19.65,225.3,5.26,-13.96,-13.83
2005-05-28 17:00,18.77,188.7,5.91,-2.84,-18.56
2005-05-28 18:00,31.97,201.0,5.78,-11.45,-29.85
2005-05-28 19:00,42.24,206.6,5.61,-18.92,-37.76
2005-05-28 20:00,56.31,202.8,5.65,-21.78,-51.93
2005-05-28 21:00,58.66,201.7,5.42,-21.69,-54.50
2005-05-28 22:00,75.96,191.2,5.74,-14.69,-74.53
2005-05-28 23:00,73.32,190.4,5.39,-13.30,-72.11
2005-05-29 00:00,,,,,
2005-05-29 01:00,,,,,
2005-05-29 02:00,,,,,
2005-05-29 03:00,14.66,297.0,5.52,-13.07,6.65
2005-05-29 04:00,16.72,327.2,5.45,-9.05,14.06
2005-05-29 05:00,15.84,320.2,5.32,-10.14,12.17
2005-05-29 06:00,8.80,331.8,5.16,-4.16,7.75
2005-05-29 07:00,26.40,272.0,5.65,-26.38,0.93
2005-05-29 08:00,35.49,268.5,5.81,-35.48,-0.93
2005-05-29 09:00,35.20,262.9,5.87,-34.92,-4.36
2005-05-29 10:00,50.15,257.6,5.61,-48.98,-10.77
2005-05-29 11:00,73.91,250.9,5.87,-69.85,-24.16
2005-05-29 12:00,61.01,256.9,5.78,-59.42,-13.83
2005-05-29 13:00,59.25,255.1,6.07,-57.27,-15.19
2005-05-29 14:00,50.45,269.6,6.07,-50.45,-0.39
2005-05-29 15:00,42.53,263.9,5.94,-42.29,-4.50
2005-05-29 16:00,42.53,282.6,5.87,-41.51,9.25
2005-05-29 17:00,39.30,275.5,5.61,-39.12,3.79
2005-05-29 18:00,39.89,272.7,6.07,-39.84,1.89
2005-05-29 19:00,38.13,260.4,6.07,-37.60,-6.35
2005-05-29 20:00,43.99,249.9,6.33,-41.31,-15.14
2005-05-29 21:00,56.02,238.6,5.61,-47.82,-29.17
2005-05-29 22:00,56.61,237.6,5.55,-47.77,-30.36
2005-05-29 23:00,61.89,223.1,5.42,-42.32,-45.15
2005-05-30 00:00,,,,,
2005-05-30 01:00,,,,,
2005-05-30 02:00,60.13,210.5,5.91,-30.51,-51.81
2005-05-30 03:00,53.97,214.0,5.71,-30.18,-44.74
2005-05-30 04:00,39.01,215.4,5.87,-22.60,-31.79
2005-05-30 05:00,37.25,224.2,5.84,-25.97,-26.70
2005-05-30 06:00,30.21,244.6,5.71,-27.29,-12.96
2005-05-30 07:00,12.32,289.2,5.84,-11.63,4.06
2005-05-30 08:00,12.91,214.7,5.87,-7.35,-10.61
2005-05-30 09:00,26.69,253.7,5.52,-25.62,-7.48
2005-05-30 10:00,31.38,218.6,5.52,-19.57,-24.54
2005-05-30 11:00,36.96,231.2,5.55,-28.81,-23.14
2005-05-30 12:00,36.37,202.4,5.29,-13.86,-33.62
2005-05-30 13:00,27.28,212.2,5.42,-14.55,-23.07
2005-05-30 14:00,23.46,214.7,5.23,-13.36,-19.29
2005-05-30 15:00,22.29,240.0,5.55,-19.31,-11.14
2005-05-30 16:00,7.92,221.4,5.61,-5.24,-5.94
2005-05-30 17:00,8.80,247.1,5.65,-8.10,-3.43
2005-05-30 18:00,9.68,315.3,5.74,-6.81,6.88
2005-05-30 19:00,15.54,359.9,5.97,-0.03,15.54
2005-05-30 20:00,9.68,332.1,5.68,-4.52,8.56
2005-05-30 21:00,8.80,281.9,6.00,-8.61,1.81
2005-05-30 22:00,4.11,3.7,5.97,0.27,4.10
2005-05-30 23:00,32.56,226.0,6.03,-23.40,-22.63
2005-05-31 00:00,,,,,
2005-05-31 01:00,,,,,
2005-05-31 02:00,33.44,256.5,5.52,-32.52,-7.78
2005-05-31 03:00,29.33,262.2,5.61,-29.06,-3.99
2005-05-31 04:00,31.38,280.8,5.55,-30.83,5.89
2005-05-31 05:00,23.76,301.9,5.42,-20.17,12.56
2005-05-31 06:00,25.22,328.6,5.29,-13.13,21.54
2005-05-31 07:00,24.05,320.9,5.29,-15.17,18.66
2005-05-31 08:00,24.93,311.7,5.39,-18.60,16.60
2005-05-31 09:00,23.46,289.2,5.45,-22.15,7.73
2005-05-31 10:00,28.45,254.8,5.19,-27.45,-7.46
2005-05-31 11:00,50.74,247.4,5.19,-46.85,-19.49
2005-05-31 12:00,54.26,237.2,5.29,-45.61,-29.39
2005-05-31 13:00,53.97,233.7,5.29,-43.49,-31.95
2005-05-31 14:00,50.45,240.0,5.45,-43.70,-25.21
2005-05-31 15:00,43.12,236.2,5.29,-35.81,-24.01
2005-05-31 16:00,26.40,237.9,5.36,-22.36,-14.02
2005-05-31 17:00,13.20,253.7,5.26,-12.67,-3.70
2005-05-31 18:00,11.15,324.4,5.42,-6.49,9.06
2005-05-31 19:00,15.25,2.3,5.58,0.62,15.24
2005-05-31 20:00,12.91,16.1,5.61,3.57,12.40
2005-05-31 21:00,15.25,350.4,5.81,-2.55,15.04
2005-05-31 22:00,4.69,271.7,5.71,-4.69,0.14
2005-05-31 23:00,17.60,185.9,5.68,-1.80,-17.51
2005-06-01 00:00,,,,,
2005-06-01 01:00,,,,,
2005-06-01 02:00,41.94,245.3,5.65,-38.10,-17.53
2005-06-01 03:00,39.30,241.4,5.58,-34.52,-18.80
2005-06-01 04:00,31.68,230.2,5.48,-24.33,-20.29
2005-06-01 05:00,23.76,230.9,5.84,-18.43,-14.99
2005-06-01 06:00,20.53,252.0,5.74,-19.52,-6.35
2005-06-01 07:00,17.30,274.8,5.55,-17.24,1.46
2005-06-01 08:00,18.48,268.9,5.32,-18.47,-0.37
2005-06-01 09:00,24.05,259.7,5.52,-23.66,-4.30
2005-06-01 10:00,26.98,244.9,5.10,-24.44,-11.43
2005-06-01 11:00,43.99,231.2,5.16,-34.30,-27.55
2005-06-01 12:00,55.43,236.5,5.58,-46.23,-30.59
2005-06-01 13:00,56.02,243.5,5.32,-50.15,-24.96
2005-06-01 14:00,68.05,246.4,5.61,-62.33,-27.29
2005-06-01 15:00,72.15,248.1,6.07,-66.95,-26.90
2005-06-01 16:00,60.13,251.3,6.16,-56.94,-19.30
2005-06-01 17:00,,,,,
2005-06-01 18:00,35.78,259.0,6.97,-35.13,-6.82
2005-06-01 19:00,28.45,262.5,6.55,-28.21,-3.70
2005-06-01 20:00,20.24,263.2,6.49,-20.10,-2.39
2005-06-01 21:00,17.89,260.1,6.58,-17.62,-3.09
2005-06-01 22:00,25.22,242.8,6.58,-22.44,-11.52
2005-06-01 23:00,37.54,230.9,6.74,-29.13,-23.69
2005-06-02 00:00,,,,,
2005-06-02 01:00,,,,,
2005-06-02 02:00,62.77,218.2,6.42,-38.84,-49.31
2005-06-02 03:00,67.17,213.7,6.36,-37.22,-55.91
2005-06-02 04:00,65.41,215.8,6.26,-38.22,-53.07
2005-06-02 05:00,55.43,219.6,6.33,-35.36,-42.69
2005-06-02 06:00,42.24,227.7,6.23,-31.25,-28.42
2005-06-02 07:00,35.20,241.4,6.23,-30.91,-16.83
2005-06-02 08:00,26.69,247.4,6.33,-24.64,-10.25
2005-06-02 09:00,25.81,259.0,6.36,-25.34,-4.92
2005-06-02 10:00,23.46,243.2,6.42,-20.94,-10.58
2005-06-02 11:00,29.33,236.5,6.55,-24.46,-16.19
2005-06-02 12:00,39.60,231.9,6.62,-31.17,-24.41
2005-06-02 13:00,45.75,222.8,6.65,-31.08,-33.57
2005-06-02 14:00,52.50,216.1,6.65,-30.94,-42.41
2005-06-02 15:00,55.43,209.4,6.74,-27.24,-48.28
2005-06-02 16:00,53.67,205.6,6.87,-23.16,-48.42
2005-06-02 17:00,46.93,199.9,6.74,-16.00,-44.11
2005-06-02 18:00,40.77,194.3,6.68,-10.08,-39.50
2005-06-02 19:00,26.40,194.3,6.74,-6.53,-25.58
2005-06-02 20:00,19.94,127.2,6.71,15.89,-12.05
2005-06-02 21:00,14.08,139.8,6.68,9.08,-10.76
2005-06-02 22:00,8.80,187.6,6.71,-1.17,-8.72
2005-06-02 23:00,15.25,174.3,6.71,1.52,-15.18
2005-06-03 00:00,,,,,
2005-06-03 01:00,,,,,
2005-06-03 02:00,,,,,
2005-06-03 03:00,56.02,204.2,6.65,-22.93,-51.11
2005-06-03 04:00,57.19,203.5,6.74,-22.77,-52.47
2005-06-03 05:00,48.39,201.0,6.62,-17.34,-45.18
2005-06-03 06:00,41.36,208.0,6.42,-19.43,-36.51
2005-06-03 07:00,31.97,208.0,6.90,-15.02,-28.22
2005-06-03 08:00,22.29,248.1,6.55,-20.68,-8.31
2005-06-03 09:00,9.39,288.5,6.68,-8.90,2.98
2005-06-03 10:00,8.51,315.6,6.81,-5.95,6.08
2005-06-03 11:00,9.39,351.4,6.94,-1.40,9.28
2005-06-03 12:00,4.40,319.5,6.97,-2.86,3.34
2005-06-03 13:00,16.13,271.0,7.07,-16.13,0.27
2005-06-03 14:00,25.81,214.4,7.13,-14.57,-21.31
2005-06-03 15:00,18.77,191.9,7.16,-3.86,-18.37
2005-06-03 16:00,35.20,186.9,7.29,-4.25,-34.94
2005-06-03 17:00,36.08,188.0,7.29,-5.01,-35.73
2005-06-03 18:00,29.62,190.8,7.35,-5.55,-29.10
2005-06-03 19:00,22.58,191.9,7.42,-4.64,-22.10
2005-06-03 20:00,11.73,125.0,7.58,9.60,-6.74
2005-06-03 21:00,6.45,96.9,7.51,6.41,-0.78
2005-06-03 22:00,6.16,16.1,7.45,1.70,5.92
2005-06-03 23:00,5.87,40.3,7.55,3.80,4.47
2005-06-04 00:00,,,,,
2005-06-04 01:00,,,,,
2005-06-04 02:00,31.38,226.7,7.42,-22.83,-21.54
2005-06-04 03:00,35.78,216.1,7.35,-21.09,-28.91
2005-06-04 04:00,41.36,234.4,7.29,-33.62,-24.08
2005-06-04 05:00,52.79,218.6,7.35,-32.92,-41.27
2005-06-04 06:00,,,,,
2005-06-04 07:00,35.78,215.4,7.51,-20.73,-29.16
2005-06-04 08:00,25.81,241.1,7.48,-22.59,-12.48
2005-06-04 09:00,4.11,206.6,7.48,-1.84,-3.67
2005-06-04 10:00,8.21,6.9,7.42,0.99,8.15
2005-06-04 11:00,,,,,
2005-06-04 12:00,,,,,
2005-06-04 13:00,7.92,85.7,7.58,7.90,0.60
2005-06-04 14:00,13.20,174.3,7.67,1.32,-13.13
2005-06-04 15:00,26.98,177.8,7.83,1.04,-26.96
2005-06-04 16:00,37.54,178.5,7.83,0.99,-37.53
2005-06-04 17:00,44.87,180.6,7.99,-0.47,-44.87
2005-06-04 18:00,38.72,182.0,8.06,-1.36,-38.69
2005-06-04 19:00,36.66,200.3,8.09,-12.71,-34.39
2005-06-04 20:00,34.02,206.3,7.99,-15.06,-30.51
2005-06-04 21:00,12.03,207.7,7.96,-5.59,-10.65
2005-06-04 22:00,4.69,162.7,8.09,1.40,-4.48
2005-06-04 23:00,2.05,295.6,7.99,-1.85,0.89
2005-06-05 00:00,,,,,
2005-06-05 01:00,,,,,
2005-06-05 02:00,23.76,234.7,8.03,-19.40,-13.71
2005-06-05 03:00,35.49,240.7,7.67,-30.96,-17.35
2005-06-05 04:00,36.96,217.5,7.87,-22.51,-29.31
2005-06-05 05:00,43.99,223.8,7.77,-30.48,-31.73
2005-06-05 06:00,56.61,227.4,7.67,-41.64,-38.34
2005-06-05 07:00,47.81,226.3,7.67,-34.57,-33.02
2005-06-05 08:00,35.78,220.0,7.55,-22.99,-27.42
2005-06-05 09:00,26.98,226.3,7.51,-19.51,-18.64
2005-06-05 10:00,15.25,236.9,7.45,-12.77,-8.34
2005-06-05 11:00,13.20,290.7,7.55,-12.35,4.66
2005-06-05 12:00,17.30,286.4,7.39,-16.60,4.90
2005-06-05 13:00,6.45,288.9,7.58,-6.10,2.09
2005-06-05 14:00,35.20,249.9,7.93,-33.05,-12.11
2005-06-05 15:00,27.57,250.6,7.77,-26.00,-9.17
2005-06-05 16:00,35.20,213.7,7.80,-19.50,-29.30
2005-06-05 17:00,41.94,220.3,8.15,-27.15,-31.97
2005-06-05 18:00,56.02,241.8,8.34,-49.36,-26.49
2005-06-05 19:00,44.29,223.8,7.64,-30.68,-31.94
2005-06-05 20:00,41.94,216.5,7.61,-24.93,-33.73
2005-06-05 21:00,35.49,236.9,8.03,-29.72,-19.40
2005-06-05 22:00,26.69,246.4,7.74,-24.45,-10.71
2005-06-05 23:00,21.41,276.2,8.03,-21.28,2.33
2005-06-06 00:00,,,,,
2005-06-06 01:00,,,,,
2005-06-06 02:00,35.20,250.2,7.26,-33.12,-11.91
2005-06-06 03:00,47.51,239.7,7.26,-41.01,-23.99
2005-06-06 04:00,63.65,234.0,7.26,-51.52,-37.37
2005-06-06 05:00,56.61,237.2,7.03,-47.59,-30.66
2005-06-06 06:00,63.65,226.0,6.87,-45.75,-44.25
2005-06-06 07:00,60.42,223.1,6.71,-41.32,-44.08
2005-06-06 08:00,51.03,221.7,6.87,-33.98,-38.08
2005-06-06 09:00,41.65,234.0,7.00,-33.71,-24.45
2005-06-06 10:00,25.81,229.1,6.45,-19.52,-16.89
2005-06-06 11:00,23.46,240.4,6.49,-20.40,-11.60
2005-06-06 12:00,29.92,242.8,6.39,-26.62,-13.66
2005-06-06 13:00,31.68,243.5,6.52,-28.36,-14.11
2005-06-06 14:00,27.86,250.6,6.39,-26.28,-9.27
2005-06-06 15:00,39.89,234.4,6.49,-32.43,-23.22
2005-06-06 16:00,44.87,230.2,6.52,-34.47,-28.74
2005-06-06 17:00,60.42,230.2,6.49,-46.40,-38.69
2005-06-06 18:00,56.02,216.8,6.45,-33.57,-44.85
2005-06-06 19:00,52.79,210.5,6.26,-26.79,-45.49
2005-06-06 20:00,59.25,210.1,6.39,-29.75,-51.24
2005-06-06 21:00,50.45,215.4,6.62,-29.23,-41.12
2005-06-06 22:00,35.49,242.1,6.45,-31.37,-16.59
2005-06-06 23:00,22.58,246.0,6.39,-20.63,-9.19
2005-06-07 00:00,,,,,
2005-06-07 01:00,,,,,
2005-06-07 02:00,9.39,314.6,6.16,-6.69,6.59
2005-06-07 03:00,9.68,232.6,6.13,-7.69,-5.87
2005-06-07 04:00,28.45,208.0,6.20,-13.37,-25.11
2005-06-07 05:00,,,,,
2005-06-07 06:00,50.45,209.4,6.29,-24.79,-43.94
2005-06-07 07:00,54.55,204.2,6.33,-22.33,-49.78
2005-06-07 08:00,69.51,190.4,6.45,-12.60,-68.36
2005-06-07 09:00,57.78,193.3,6.94,-13.25,-56.24
2005-06-07 10:00,41.06,196.1,7.07,-11.37,-39.46
2005-06-07 11:00,31.97,217.9,6.94,-19.63,-25.24
2005-06-07 12:00,26.98,228.4,7.26,-20.18,-17.91
2005-06-07 13:00,19.36,277.6,7.00,-19.19,2.57
2005-06-07 14:00,21.12,295.6,6.55,-19.05,9.12
2005-06-07 15:00,13.20,224.6,6.71,-9.26,-9.41
2005-06-07 16:00,19.94,192.2,6.84,-4.22,-19.49
2005-06-07 17:00,24.34,227.4,6.71,-17.91,-16.49
2005-06-07 18:00,26.10,206.6,6.52,-11.70,-23.34
2005-06-07 19:00,34.90,224.6,6.55,-24.49,-24.87
2005-06-07 20:00,44.29,201.0,7.07,-15.87,-41.35
2005-06-07 21:00,42.24,216.1,7.26,-24.89,-34.12
2005-06-07 22:00,47.22,195.4,8.06,-12.52,-45.53
2005-06-07 23:00,33.44,203.1,8.09,-13.12,-30.75
2005-06-08 00:00,,,,,
2005-06-08 01:00,,,,,
2005-06-08 02:00,8.80,126.8,7.80,7.04,-5.27
2005-06-08 03:00,15.25,188.7,8.06,-2.30,-15.08
2005-06-08 04:00,25.22,202.4,8.06,-9.61,-23.32
2005-06-08 05:00,39.60,212.2,7.87,-21.13,-33.49
2005-06-08 06:00,48.39,218.2,7.55,-29.94,-38.02
2005-06-08 07:00,54.55,205.2,7.64,-23.24,-49.36
2005-06-08 08:00,55.14,209.8,7.35,-27.39,-47.86
2005-06-08 09:00,56.61,203.1,7.51,-22.21,-52.07
2005-06-08 10:00,47.81,206.3,7.16,-21.16,-42.87
2005-06-08 11:00,31.97,214.4,6.78,-18.04,-26.39
2005-06-08 12:00,24.93,220.0,6.78,-16.02,-19.10
2005-06-08 13:00,14.08,256.5,6.62,-13.69,-3.28
2005-06-08 14:00,10.56,281.5,6.55,-10.35,2.11
2005-06-08 15:00,4.99,260.8,6.49,-4.92,-0.80
2005-06-08 16:00,11.15,247.8,6.74,-10.32,-4.22
2005-06-08 17:00,19.94,239.0,6.84,-17.09,-10.28
2005-06-08 18:00,24.93,220.0,6.62,-16.02,-19.10
2005-06-08 19:00,27.86,222.8,7.29,-18.93,-20.45
2005-06-08 20:00,29.62,209.4,6.90,-14.56,-25.80
2005-06-08 21:00,32.85,205.6,6.52,-14.18,-29.63
2005-06-08 22:00,30.50,203.8,6.87,-12.31,-27.91
2005-06-08 23:00,24.05,196.1,6.81,-6.66,-23.11
2005-06-09 00:00,,,,,
2005-06-09 01:00,,,,,
2005-06-09 02:00,12.03,222.1,7.03,-8.06,-8.92
2005-06-09 03:00,12.32,221.4,6.74,-8.14,-9.24
2005-06-09 04:00,16.72,235.8,6.45,-13.83,-9.40
2005-06-09 05:00,27.57,228.1,6.58,-20.51,-18.42
2005-06-09 06:00,44.29,228.8,6.49,-33.31,-29.19
2005-06-09 07:00,46.34,238.6,7.23,-39.56,-24.13
2005-06-09 08:00,43.99,230.9,6.84,-34.13,-27.76
2005-06-09 09:00,38.72,238.3,6.87,-32.93,-20.36
2005-06-09 10:00,39.60,260.8,6.78,-39.08,-6.35
2005-06-09 11:00,25.52,267.8,6.62,-25.50,-0.98
2005-06-09 12:00,15.54,296.6,6.45,-13.90,6.97
2005-06-09 13:00,16.42,304.7,6.45,-13.50,9.35
2005-06-09 14:00,12.61,309.6,6.33,-9.71,8.05
2005-06-09 15:00,23.76,318.4,7.00,-15.76,17.77
2005-06-09 16:00,14.08,313.2,6.78,-10.27,9.63
2005-06-09 17:00,7.04,256.9,7.07,-6.86,-1.60
2005-06-09 18:00,26.40,207.0,7.19,-11.97,-23.53
2005-06-09 19:00,44.29,194.0,7.32,-10.69,-42.98
2005-06-09 20:00,42.24,208.7,7.10,-20.30,-37.04
2005-06-09 21:00,44.29,201.3,6.87,-16.12,-41.25
2005-06-09 22:00,33.44,217.2,8.06,-20.20,-26.64
2005-06-09 23:00,,,,,
2005-06-10 00:00,,,,,
2005-06-10 01:00,,,,,
2005-06-10 02:00,9.97,242.1,8.50,-8.82,-4.66
2005-06-10 03:00,15.25,280.5,7.87,-15.00,2.77
2005-06-10 04:00,24.34,286.8,8.15,-23.31,7.03
2005-06-10 05:00,21.12,263.6,6.45,-20.99,-2.36
2005-06-10 06:00,27.86,229.5,7.51,-21.18,-18.11
2005-06-10 07:00,40.48,229.1,7.77,-30.60,-26.49
2005-06-10 08:00,48.98,231.6,6.36,-38.38,-30.43
2005-06-10 09:00,55.14,237.2,6.84,-46.35,-29.86
2005-06-10 10:00,41.06,235.1,6.13,-33.68,-23.49
2005-06-10 11:00,39.30,239.7,6.87,-33.92,-19.85
2005-06-10 12:00,28.16,245.6,7.48,-25.65,-11.61
2005-06-10 13:00,25.22,247.1,6.52,-23.23,-9.83
2005-06-10 14:00,20.24,272.7,7.03,-20.21,0.96
2005-06-10 15:00,17.01,267.8,6.39,-17.00,-0.65
2005-06-10 16:00,14.08,272.0,6.65,-14.07,0.50
2005-06-10 17:00,15.25,265.7,6.42,-15.21,-1.15
2005-06-10 18:00,20.24,153.2,7.16,9.13,-18.06
2005-06-10 19:00,34.61,170.4,6.97,5.77,-34.13
2005-06-10 20:00,39.01,193.3,7.23,-8.95,-37.97
2005-06-10 21:00,54.85,198.5,6.81,-17.43,-52.00
2005-06-10 22:00,64.82,197.5,7.29,-19.47,-61.83
2005-06-10 23:00,66.87,197.8,7.67,-20.48,-63.66
2005-06-11 00:00,,,,,
2005-06-11 01:00,,,,,
2005-06-11 02:00,46.34,221.0,7.99,-30.42,-34.95
2005-06-11 03:00,32.85,218.6,8.60,-20.48,-25.68
2005-06-11 04:00,25.52,226.7,8.38,-18.56,-17.51
2005-06-11 05:00,25.22,223.5,7.93,-17.36,-18.30
2005-06-11 06:00,37.25,210.8,7.77,-19.10,-31.98
2005-06-11 07:00,49.27,212.2,7.74,-26.29,-41.67
2005-06-11 08:00,64.53,204.2,7.96,-26.41,-58.87
2005-06-11 09:00,60.42,212.6,7.67,-32.55,-50.90
2005-06-11 10:00,65.99,209.1,7.55,-32.08,-57.67
2005-06-11 11:00,70.98,203.1,7.58,-27.85,-65.29
2005-06-11 12:00,59.25,212.2,7.58,-31.61,-50.11
2005-06-11 13:00,43.12,203.8,7.90,-17.40,-39.45
2005-06-11 14:00,36.37,204.5,7.83,-15.09,-33.09
2005-06-11 15:00,31.09,212.2,7.99,-16.59,-26.29
2005-06-11 16:00,23.46,235.5,8.03,-19.33,-13.31
2005-06-11 17:00,14.37,257.3,8.03,-14.02,-3.17
2005-06-11 18:00,13.79,228.1,8.34,-10.26,-9.21
2005-06-11 19:00,17.30,225.3,8.63,-12.29,-12.18
2005-06-11 20:00,,,,,
2005-06-11 21:00,30.50,200.3,8.47,-10.58,-28.61
2005-06-11 22:00,35.78,196.8,8.15,-10.33,-34.26
2005-06-11 23:00,34.61,202.4,7.23,-13.19,-32.00
2005-06-12 00:00,,,,,
2005-06-12 01:00,,,,,
2005-06-12 02:00,23.17,212.2,7.26,-12.36,-19.60
2005-06-12 03:00,13.79,245.6,7.58,-12.56,-5.68
2005-06-12 04:00,18.18,296.6,7.90,-16.26,8.15
2005-06-12 05:00,11.73,311.4,7.93,-8.80,7.76
2005-06-12 06:00,9.09,252.7,7.87,-8.68,-2.71
2005-06-12 07:00,17.60,238.6,7.80,-15.02,-9.16
2005-06-12 08:00,17.30,226.7,7.55,-12.59,-11.88
2005-06-12 09:00,28.16,205.2,7.80,-11.99,-25.47
2005-06-12 10:00,39.30,222.8,7.32,-26.70,-28.84
2005-06-12 11:00,39.89,214.4,7.32,-22.51,-32.93
2005-06-12 12:00,44.58,193.6,7.39,-10.49,-43.33
2005-06-12 13:00,28.45,209.1,7.45,-13.83,-24.86
2005-06-12 14:00,24.64,212.2,7.29,-13.15,-20.84
2005-06-12 15:00,18.48,268.5,7.67,-18.47,-0.48
2005-06-12 16:00,17.60,314.2,7.23,-12.61,12.27
2005-06-12 17:00,,,,,
2005-06-12 18:00,4.69,303.0,7.42,-3.94,2.55
2005-06-12 19:00,18.77,212.6,7.32,-10.11,-15.81
2005-06-12 20:00,26.69,203.8,7.16,-10.77,-24.42
2005-06-12 21:00,41.94,217.2,7.16,-25.34,-33.42
2005-06-12 22:00,47.22,210.1,7.00,-23.71,-40.84
2005-06-12 23:00,47.81,207.7,7.00,-22.21,-42.34
2005-06-13 00:00,,,,,
2005-06-13 01:00,,,,,
2005-06-13 02:00,32.26,211.5,7.23,-16.88,-27.50
2005-06-13 03:00,18.77,233.3,7.16,-15.06,-11.21
2005-06-13 04:00,10.56,250.9,7.26,-9.98,-3.45
2005-06-13 05:00,12.32,263.9,7.32,-12.25,-1.30